| time (UTC) | temp C | wind direction | speed KPH | gust KPH | rain 1hr cm | rain 24hr cm | rain mn cm | humidity % | barometer mb |
| 20260906121543 | 20 | 0 | 0.0 | 1.6 | 0.00 | 0.00 | 0.00 | 97 | 1018.4 |
| 20260906121026 | 20 | 345 | 0.0 | 1.6 | 0.00 | 0.00 | 0.00 | 97 | 1018.4 |
| 20260906120529 | 20 | 0 | 0.0 | 1.6 | 0.00 | 0.00 | 0.00 | 98 | 1018.3 |
| 20260906120054 | 20 | 0 | 0.0 | 1.6 | 0.00 | 0.00 | 0.00 | 98 | 1018.1 |
| 20260906115531 | 20 | 342 | 0.0 | 1.6 | 0.00 | 0.00 | 0.00 | 98 | 1018.1 |
| 20260906115028 | 20 | 0 | 0.0 | 1.6 | 0.00 | 0.00 | 0.00 | 98 | 1017.8 |
| 20260906114559 | 20 | 0 | 0.0 | 1.6 | 0.00 | 0.00 | 0.00 | 98 | 1017.7 |
| 20260906114028 | 20 | 0 | 0.0 | 1.6 | 0.00 | 0.00 | 0.00 | 98 | 1017.7 |
| 20260906113529 | 20 | 0 | 0.0 | 1.6 | 0.00 | 0.00 | 0.00 | 98 | 1017.7 |
| 20260906113043 | 20 | 0 | 0.0 | 1.6 | 0.00 | 0.00 | 0.00 | 98 | 1017.6 |
| 20260906112530 | 20 | 0 | 0.0 | 1.6 | 0.00 | 0.00 | 0.00 | 98 | 1017.6 |
| 20260906112029 | 20 | 342 | 0.0 | 1.6 | 0.00 | 0.00 | 0.00 | 98 | 1017.6 |
| 20260906111543 | 20 | 341 | 0.0 | 1.6 | 0.00 | 0.00 | 0.00 | 98 | 1017.4 |
| 20260906111029 | 20 | 333 | 0.0 | 1.6 | 0.00 | 0.00 | 0.00 | 98 | 1017.4 |
| 20260906110530 | 20 | 331 | 0.0 | 1.6 | 0.00 | 0.00 | 0.00 | 98 | 1017.4 |
| 20260906110053 | 20 | 327 | 0.0 | 1.6 | 0.00 | 0.00 | 0.00 | 98 | 1017.3 |
| 20260906105527 | 20 | 315 | 0.0 | 1.6 | 0.00 | 0.00 | 0.00 | 98 | 1017.1 |
| 20260906105027 | 20 | 0 | 0.0 | 1.6 | 0.00 | 0.00 | 0.00 | 98 | 1017.1 |
| 20260906104602 | 20 | 285 | 0.0 | 1.6 | 0.00 | 0.00 | 0.00 | 98 | 1017.0 |
| 20260906104029 | 20 | 0 | 0.0 | 1.6 | 0.00 | 0.00 | 0.00 | 98 | 1017.0 |
| 20260906103528 | 20 | 0 | 0.0 | 1.6 | 0.00 | 0.00 | 0.00 | 98 | 1017.1 |
| 20260906103046 | 20 | 0 | 0.0 | 1.6 | 0.00 | 0.00 | 0.00 | 98 | 1017.0 |
| 20260906102529 | 20 | 0 | 0.0 | 0.0 | 0.00 | 0.00 | 0.00 | 98 | 1017.0 |
| 20260906102029 | 20 | 0 | 0.0 | 0.0 | 0.00 | 0.00 | 0.00 | 98 | 1017.0 |
| 20260906101556 | 20 | 0 | 0.0 | 0.0 | 0.00 | 0.00 | 0.00 | 97 | 1016.9 |
| 20260906101030 | 20 | 0 | 0.0 | 0.0 | 0.00 | 0.00 | 0.00 | 97 | 1017.0 |
| 20260906100530 | 20 | 0 | 0.0 | 0.0 | 0.00 | 0.00 | 0.00 | 97 | 1017.0 |
| 20260906100053 | 20 | 0 | 0.0 | 1.6 | 0.00 | 0.00 | 0.00 | 97 | 1016.8 |
| 20260906095531 | 20 | 0 | 0.0 | 1.6 | 0.00 | 0.00 | 0.00 | 97 | 1016.7 |
| 20260906095029 | 20 | 313 | 0.0 | 1.6 | 0.00 | 0.00 | 0.00 | 97 | 1016.7 |
| 20260906094549 | 20 | 0 | 0.0 | 1.6 | 0.00 | 0.00 | 0.00 | 97 | 1016.7 |
| 20260906094029 | 20 | 0 | 0.0 | 1.6 | 0.00 | 0.00 | 0.00 | 97 | 1016.6 |
| 20260906093529 | 20 | 0 | 0.0 | 1.6 | 0.00 | 0.00 | 0.00 | 97 | 1016.6 |
| 20260906093058 | 20 | 317 | 0.0 | 1.6 | 0.00 | 0.00 | 0.00 | 97 | 1016.6 |
| 20260906092527 | 20 | 0 | 0.0 | 0.0 | 0.00 | 0.00 | 0.00 | 96 | 1016.7 |
| 20260906092028 | 20 | 0 | 0.0 | 1.6 | 0.00 | 0.00 | 0.00 | 96 | 1016.7 |
| 20260906091553 | 20 | 0 | 0.0 | 1.6 | 0.00 | 0.00 | 0.00 | 96 | 1016.6 |
| 20260906091028 | 21 | 0 | 0.0 | 1.6 | 0.00 | 0.00 | 0.00 | 96 | 1016.6 |
| 20260906090527 | 21 | 0 | 0.0 | 1.6 | 0.00 | 0.00 | 0.00 | 96 | 1016.5 |
| 20260906090054 | 21 | 0 | 0.0 | 3.2 | 0.00 | 0.00 | 0.00 | 96 | 1016.4 |
| 20260906085527 | 21 | 349 | 0.0 | 3.2 | 0.00 | 0.00 | 0.00 | 95 | 1016.6 |
| 20260906085028 | 21 | 0 | 0.0 | 1.6 | 0.00 | 0.00 | 0.00 | 95 | 1016.5 |
| 20260906084548 | 21 | 0 | 0.0 | 1.6 | 0.00 | 0.00 | 0.00 | 95 | 1016.6 |
| 20260906084029 | 21 | 0 | 0.0 | 3.2 | 0.00 | 0.00 | 0.00 | 95 | 1016.5 |
| 20260906083528 | 21 | 0 | 0.0 | 3.2 | 0.00 | 0.00 | 0.00 | 95 | 1016.5 |
| 20260906083047 | 21 | 0 | 0.0 | 1.6 | 0.00 | 0.00 | 0.00 | 95 | 1016.4 |
| 20260906082531 | 21 | 0 | 0.0 | 1.6 | 0.00 | 0.00 | 0.00 | 95 | 1016.3 |
| 20260906082027 | 21 | 315 | 0.0 | 1.6 | 0.00 | 0.00 | 0.00 | 95 | 1016.4 |
| 20260906081548 | 21 | 309 | 0.0 | 1.6 | 0.00 | 0.00 | 0.00 | 94 | 1016.5 |
| 20260906081026 | 21 | 307 | 0.0 | 1.6 | 0.00 | 0.00 | 0.00 | 94 | 1016.6 |
| 20260906080527 | 21 | 0 | 0.0 | 1.6 | 0.00 | 0.00 | 0.00 | 94 | 1016.7 |
| 20260906080054 | 21 | 313 | 0.0 | 1.6 | 0.00 | 0.00 | 0.00 | 94 | 1016.7 |
| 20260906075526 | 21 | 297 | 0.0 | 1.6 | 0.00 | 0.00 | 0.00 | 93 | 1016.7 |
| 20260906075026 | 21 | 0 | 0.0 | 1.6 | 0.00 | 0.00 | 0.00 | 93 | 1016.7 |
| 20260906074542 | 21 | 0 | 0.0 | 1.6 | 0.00 | 0.00 | 0.00 | 92 | 1016.8 |
| 20260906074031 | 22 | 0 | 0.0 | 1.6 | 0.00 | 0.00 | 0.00 | 92 | 1016.8 |
| 20260906073526 | 22 | 322 | 0.0 | 1.6 | 0.00 | 0.00 | 0.00 | 91 | 1016.8 |
| 20260906073047 | 22 | 0 | 0.0 | 1.6 | 0.00 | 0.00 | 0.00 | 91 | 1017.0 |
| 20260906072529 | 22 | 0 | 0.0 | 1.6 | 0.00 | 0.00 | 0.00 | 91 | 1016.8 |
| 20260906072030 | 22 | 0 | 0.0 | 3.2 | 0.00 | 0.00 | 0.00 | 90 | 1016.7 |
| 20260906071547 | 22 | 0 | 0.0 | 3.2 | 0.00 | 0.00 | 0.00 | 90 | 1016.7 |
| 20260906071028 | 22 | 314 | 0.0 | 3.2 | 0.00 | 0.00 | 0.00 | 89 | 1016.7 |
| 20260906070528 | 22 | 337 | 0.0 | 3.2 | 0.00 | 0.00 | 0.00 | 89 | 1016.8 |
| 20260906070044 | 22 | 67 | 0.0 | 3.2 | 0.00 | 0.00 | 0.00 | 89 | 1016.9 |
| 20260906065527 | 22 | 109 | 0.0 | 1.6 | 0.00 | 0.00 | 0.00 | 89 | 1016.8 |
| 20260906065029 | 22 | 0 | 0.0 | 1.6 | 0.00 | 0.00 | 0.00 | 89 | 1016.7 |
| 20260906064542 | 22 | 271 | 0.0 | 1.6 | 0.00 | 0.00 | 0.00 | 89 | 1016.9 |
| 20260906064027 | 22 | 0 | 0.0 | 0.0 | 0.00 | 0.00 | 0.00 | 89 | 1017.0 |
| 20260906063531 | 22 | 0 | 0.0 | 0.0 | 0.00 | 0.00 | 0.00 | 90 | 1016.9 |
| 20260906063048 | 22 | 0 | 0.0 | 0.0 | 0.00 | 0.00 | 0.00 | 89 | 1017.1 |
| 20260906062529 | 22 | 304 | 0.0 | 0.0 | 0.00 | 0.00 | 0.00 | 89 | 1017.0 |
| 20260906062029 | 22 | 0 | 0.0 | 4.8 | 0.00 | 0.00 | 0.00 | 89 | 1017.1 |
| 20260906061549 | 22 | 0 | 0.0 | 4.8 | 0.00 | 0.00 | 0.00 | 89 | 1017.1 |
| 20260906061028 | 22 | 307 | 1.6 | 4.8 | 0.00 | 0.00 | 0.00 | 89 | 1017.0 |
| 20260906060529 | 22 | 252 | 0.0 | 4.8 | 0.00 | 0.00 | 0.00 | 89 | 1017.0 |
| 20260906060044 | 22 | 0 | 0.0 | 4.8 | 0.00 | 0.00 | 0.00 | 89 | 1016.8 |
| 20260906055528 | 22 | 0 | 0.0 | 3.2 | 0.00 | 0.00 | 0.00 | 88 | 1016.8 |
| 20260906055027 | 22 | 115 | 0.0 | 3.2 | 0.00 | 0.00 | 0.00 | 89 | 1016.8 |
| 20260906054604 | 22 | 165 | 0.0 | 3.2 | 0.00 | 0.00 | 0.00 | 89 | 1016.8 |
| 20260906054029 | 22 | 0 | 0.0 | 8.0 | 0.00 | 0.00 | 0.00 | 89 | 1016.6 |
| 20260906053526 | 23 | 337 | 0.0 | 8.0 | 0.00 | 0.00 | 0.00 | 88 | 1016.7 |
| 20260906053050 | 23 | 310 | 1.6 | 4.8 | 0.00 | 0.00 | 0.00 | 88 | 1016.6 |
| 20260906052529 | 23 | 0 | 0.0 | 6.4 | 0.00 | 0.00 | 0.00 | 88 | 1016.6 |
| 20260906052025 | 23 | 321 | 0.0 | 6.4 | 0.00 | 0.00 | 0.00 | 88 | 1016.6 |
| 20260906051551 | 23 | 0 | 0.0 | 6.4 | 0.00 | 0.00 | 0.00 | 88 | 1016.6 |
| 20260906051027 | 23 | 0 | 1.6 | 6.4 | 0.00 | 0.00 | 0.00 | 88 | 1016.5 |
| 20260906050526 | 23 | 134 | 0.0 | 8.0 | 0.00 | 0.00 | 0.00 | 88 | 1016.5 |
| 20260906050116 | 23 | 115 | 1.6 | 8.0 | 0.00 | 0.00 | 0.00 | 88 | 1016.5 |
| 20260906045527 | 23 | 0 | 0.0 | 6.4 | 0.00 | 0.00 | 0.00 | 88 | 1016.5 |
| 20260906045026 | 23 | 115 | 1.6 | 9.7 | 0.00 | 0.00 | 0.00 | 88 | 1016.5 |
| 20260906044549 | 23 | 120 | 0.0 | 9.7 | 0.00 | 0.00 | 0.00 | 88 | 1016.3 |
| 20260906044027 | 23 | 4 | 0.0 | 4.8 | 0.00 | 0.00 | 0.00 | 88 | 1016.4 |
| 20260906043529 | 23 | 111 | 0.0 | 3.2 | 0.00 | 0.00 | 0.00 | 89 | 1016.1 |
| 20260906043047 | 23 | 117 | 0.0 | 3.2 | 0.00 | 0.00 | 0.00 | 88 | 1016.1 |
| 20260906042528 | 23 | 64 | 0.0 | 4.8 | 0.00 | 0.00 | 0.00 | 88 | 1016.1 |
| 20260906042029 | 23 | 90 | 0.0 | 4.8 | 0.00 | 0.00 | 0.00 | 88 | 1016.1 |
| 20260906041546 | 23 | 0 | 1.6 | 6.4 | 0.00 | 0.00 | 0.00 | 88 | 1016.0 |
| 20260906041026 | 23 | 0 | 1.6 | 6.4 | 0.00 | 0.00 | 0.00 | 88 | 1015.8 |
| 20260906040526 | 23 | 65 | 1.6 | 6.4 | 0.00 | 0.00 | 0.00 | 88 | 1015.9 |
| 20260906040108 | 23 | 314 | 1.6 | 11.3 | 0.00 | 0.00 | 0.00 | 88 | 1015.8 |
| 20260906035526 | 23 | 117 | 1.6 | 11.3 | 0.00 | 0.00 | 0.00 | 88 | 1015.7 |
| 20260906035026 | 22 | 347 | 0.0 | 6.4 | 0.00 | 0.00 | 0.00 | 88 | 1015.7 |
| 20260906034549 | 22 | 330 | 1.6 | 6.4 | 0.00 | 0.00 | 0.00 | 88 | 1015.8 |
| 20260906034027 | 22 | 0 | 1.6 | 6.4 | 0.00 | 0.00 | 0.00 | 88 | 1015.8 |
| 20260906033529 | 22 | 57 | 1.6 | 4.8 | 0.00 | 0.00 | 0.00 | 88 | 1015.7 |
| 20260906033055 | 22 | 100 | 0.0 | 4.8 | 0.00 | 0.00 | 0.00 | 88 | 1015.7 |
| 20260906032533 | 22 | 57 | 0.0 | 9.7 | 0.00 | 0.00 | 0.00 | 88 | 1015.8 |
| 20260906032029 | 22 | 347 | 1.6 | 9.7 | 0.00 | 0.00 | 0.00 | 88 | 1015.8 |
| 20260906031542 | 22 | 114 | 0.0 | 4.8 | 0.00 | 0.00 | 0.00 | 88 | 1015.9 |
| 20260906031029 | 22 | 300 | 0.0 | 4.8 | 0.00 | 0.00 | 0.00 | 88 | 1015.8 |
| 20260906030527 | 22 | 279 | 0.0 | 4.8 | 0.00 | 0.00 | 0.00 | 88 | 1015.8 |
| 20260906030042 | 22 | 295 | 1.6 | 6.4 | 0.00 | 0.00 | 0.00 | 88 | 1015.9 |
| 20260906025526 | 22 | 288 | 1.6 | 6.4 | 0.00 | 0.00 | 0.00 | 88 | 1015.8 |
| 20260906025028 | 22 | 99 | 0.0 | 17.7 | 0.00 | 0.00 | 0.00 | 88 | 1015.7 |
| 20260906024547 | 22 | 279 | 3.2 | 17.7 | 0.00 | 0.00 | 0.00 | 88 | 1015.7 |
| 20260906024030 | 22 | 282 | 3.2 | 6.4 | 0.00 | 0.00 | 0.00 | 89 | 1015.7 |
| 20260906023528 | 22 | 37 | 1.6 | 6.4 | 0.00 | 0.00 | 0.00 | 89 | 1015.9 |
| 20260906023047 | 22 | 312 | 0.0 | 11.3 | 0.00 | 0.00 | 0.00 | 89 | 1015.8 |
| 20260906022529 | 22 | 330 | 3.2 | 12.9 | 0.00 | 0.00 | 0.00 | 89 | 1015.9 |
| 20260906022029 | 22 | 8 | 1.6 | 12.9 | 0.00 | 0.00 | 0.00 | 88 | 1015.9 |
| 20260906021550 | 22 | 323 | 1.6 | 9.7 | 0.00 | 0.00 | 0.00 | 88 | 1015.9 |
| 20260906021029 | 22 | 319 | 1.6 | 14.5 | 0.00 | 0.00 | 0.00 | 88 | 1016.0 |
| 20260906020526 | 22 | 320 | 1.6 | 14.5 | 0.00 | 0.00 | 0.00 | 88 | 1015.9 |
| 20260906020055 | 22 | 328 | 3.2 | 14.5 | 0.00 | 0.00 | 0.00 | 88 | 1015.8 |
| 20260906015527 | 22 | 334 | 1.6 | 14.5 | 0.00 | 0.00 | 0.00 | 88 | 1015.9 |
| 20260906015028 | 22 | 316 | 3.2 | 14.5 | 0.00 | 0.00 | 0.00 | 88 | 1015.8 |
| 20260906014555 | 22 | 162 | 1.6 | 14.5 | 0.00 | 0.00 | 0.00 | 88 | 1015.9 |
| 20260906014029 | 22 | 32 | 3.2 | 12.9 | 0.00 | 0.00 | 0.00 | 87 | 1015.9 |
| 20260906013526 | 22 | 275 | 3.2 | 11.3 | 0.00 | 0.00 | 0.00 | 87 | 1015.8 |
| 20260906013056 | 22 | 284 | 3.2 | 9.7 | 0.00 | 0.00 | 0.00 | 87 | 1015.7 |
| 20260906012529 | 22 | 350 | 1.6 | 8.0 | 0.00 | 0.00 | 0.00 | 87 | 1015.7 |
| 20260906012028 | 22 | 354 | 0.0 | 6.4 | 0.00 | 0.00 | 0.00 | 87 | 1015.6 |
| 20260906011557 | 23 | 37 | 1.6 | 8.0 | 0.00 | 0.00 | 0.00 | 87 | 1015.6 |
| 20260906011028 | 23 | 346 | 1.6 | 8.0 | 0.00 | 0.00 | 0.00 | 87 | 1015.7 |
| 20260906010529 | 23 | 347 | 1.6 | 8.0 | 0.00 | 0.00 | 0.00 | 87 | 1015.7 |
| 20260906010052 | 23 | 326 | 1.6 | 16.1 | 0.00 | 0.00 | 0.00 | 87 | 1015.8 |
| 20260906005527 | 23 | 334 | 1.6 | 16.1 | 0.00 | 0.00 | 0.00 | 87 | 1015.8 |
| 20260906005029 | 23 | 328 | 4.8 | 16.1 | 0.00 | 0.00 | 0.00 | 87 | 1015.6 |
| 20260906004546 | 23 | 342 | 3.2 | 11.3 | 0.00 | 0.00 | 0.00 | 86 | 1015.7 |
| 20260906004029 | 23 | 6 | 1.6 | 9.7 | 0.00 | 0.00 | 0.00 | 86 | 1015.5 |
| 20260906003530 | 23 | 347 | 3.2 | 14.5 | 0.00 | 0.00 | 0.00 | 86 | 1015.4 |
| 20260906003053 | 23 | 321 | 4.8 | 14.5 | 0.00 | 0.00 | 0.00 | 86 | 1015.4 |
| 20260906002530 | 24 | 287 | 3.2 | 14.5 | 0.00 | 0.00 | 0.00 | 85 | 1015.3 |
| 20260906002030 | 24 | 30 | 4.8 | 9.7 | 0.00 | 0.00 | 0.00 | 85 | 1015.1 |
| 20260906001553 | 24 | 342 | 1.6 | 9.7 | 0.00 | 0.00 | 0.00 | 85 | 1015.2 |
| 20260906001030 | 24 | 329 | 3.2 | 9.7 | 0.00 | 0.00 | 0.00 | 84 | 1015.1 |
| 20260906000530 | 25 | 294 | 1.6 | 9.7 | 0.00 | 0.00 | 0.00 | 84 | 1014.9 |
| 20260906000048 | 25 | 355 | 1.6 | 9.7 | 0.00 | 0.00 | 0.00 | 83 | 1014.9 |
| 20260905235530 | 25 | 271 | 4.8 | 9.7 | 0.00 | 0.00 | 0.00 | 82 | 1014.8 |
| 20260905235032 | 25 | 294 | 4.8 | 9.7 | 0.00 | 0.00 | 0.00 | 82 | 1014.7 |
| 20260905234602 | 25 | 7 | 3.2 | 11.3 | 0.00 | 0.00 | 0.00 | 81 | 1014.6 |
| 20260905234030 | 26 | 320 | 4.8 | 11.3 | 0.00 | 0.00 | 0.00 | 81 | 1014.7 |
| 20260905233532 | 26 | 330 | 3.2 | 17.7 | 0.00 | 0.00 | 0.00 | 80 | 1014.7 |
| 20260905233054 | 26 | 320 | 3.2 | 17.7 | 0.00 | 0.00 | 0.00 | 79 | 1014.6 |
| 20260905232530 | 26 | 282 | 1.6 | 9.7 | 0.00 | 0.00 | 0.00 | 78 | 1014.6 |
| 20260905232032 | 27 | 13 | 3.2 | 6.4 | 0.00 | 0.00 | 0.00 | 78 | 1014.7 |
| 20260905231555 | 27 | 297 | 1.6 | 6.4 | 0.00 | 0.00 | 0.00 | 78 | 1014.5 |
| 20260905231031 | 27 | 127 | 0.0 | 8.0 | 0.00 | 0.00 | 0.00 | 78 | 1014.5 |
| 20260905230528 | 27 | 71 | 0.0 | 12.9 | 0.00 | 0.00 | 0.00 | 77 | 1014.4 |
| 20260905230107 | 27 | 86 | 3.2 | 12.9 | 0.00 | 0.00 | 0.00 | 76 | 1014.4 |
| 20260905225527 | 27 | 302 | 1.6 | 9.7 | 0.00 | 0.00 | 0.00 | 77 | 1014.4 |
| 20260905225027 | 27 | 6 | 3.2 | 8.0 | 0.00 | 0.00 | 0.00 | 76 | 1014.1 |
| 20260905224544 | 27 | 141 | 3.2 | 8.0 | 0.00 | 0.00 | 0.00 | 75 | 1014.1 |
| 20260905224034 | 27 | 12 | 1.6 | 11.3 | 0.00 | 0.00 | 0.00 | 76 | 1014.1 |
| 20260905223530 | 27 | 324 | 1.6 | 11.3 | 0.00 | 0.00 | 0.00 | 76 | 1014.2 |
| 20260905223052 | 27 | 6 | 4.8 | 11.3 | 0.00 | 0.00 | 0.00 | 75 | 1014.2 |
| 20260905222535 | 27 | 332 | 1.6 | 8.0 | 0.00 | 0.00 | 0.00 | 75 | 1014.1 |
| 20260905222033 | 27 | 267 | 4.8 | 8.0 | 0.00 | 0.00 | 0.00 | 76 | 1014.3 |
| 20260905221548 | 28 | 338 | 1.6 | 9.7 | 0.00 | 0.00 | 0.00 | 76 | 1014.2 |
| 20260905221029 | 28 | 106 | 1.6 | 9.7 | 0.00 | 0.00 | 0.00 | 76 | 1014.2 |
| 20260905220527 | 28 | 124 | 1.6 | 8.0 | 0.00 | 0.00 | 0.00 | 76 | 1014.1 |
| 20260905220047 | 28 | 333 | 1.6 | 11.3 | 0.00 | 0.00 | 0.00 | 77 | 1014.1 |
| 20260905215530 | 28 | 342 | 4.8 | 11.3 | 0.00 | 0.00 | 0.00 | 76 | 1014.3 |
| 20260905215029 | 28 | 350 | 1.6 | 9.7 | 0.00 | 0.00 | 0.00 | 75 | 1014.3 |
| 20260905214542 | 28 | 326 | 1.6 | 9.7 | 0.00 | 0.00 | 0.00 | 77 | 1014.3 |
| 20260905214028 | 28 | 350 | 3.2 | 9.7 | 0.00 | 0.00 | 0.00 | 76 | 1014.3 |
| 20260905213531 | 28 | 323 | 3.2 | 9.7 | 0.00 | 0.00 | 0.00 | 77 | 1014.2 |
| 20260905213050 | 28 | 120 | 3.2 | 11.3 | 0.00 | 0.00 | 0.00 | 78 | 1014.2 |
| 20260905212530 | 27 | 347 | 3.2 | 11.3 | 0.00 | 0.00 | 0.00 | 78 | 1014.2 |
| 20260905212029 | 27 | 75 | 3.2 | 11.3 | 0.00 | 0.00 | 0.00 | 79 | 1014.2 |
| 20260905211601 | 28 | 304 | 4.8 | 11.3 | 0.00 | 0.00 | 0.00 | 77 | 1014.1 |
| 20260905211028 | 28 | 304 | 3.2 | 9.7 | 0.00 | 0.00 | 0.00 | 77 | 1014.1 |
| 20260905210528 | 28 | 316 | 3.2 | 9.7 | 0.00 | 0.00 | 0.00 | 76 | 1014.2 |
| 20260905210057 | 28 | 315 | 3.2 | 11.3 | 0.00 | 0.00 | 0.00 | 77 | 1014.1 |
| 20260905205528 | 28 | 352 | 4.8 | 11.3 | 0.00 | 0.00 | 0.00 | 76 | 1014.1 |
| 20260905205031 | 28 | 7 | 4.8 | 11.3 | 0.00 | 0.00 | 0.00 | 76 | 1014.2 |
| 20260905204552 | 28 | 48 | 1.6 | 12.9 | 0.00 | 0.00 | 0.00 | 76 | 1014.2 |
| 20260905204030 | 28 | 98 | 3.2 | 12.9 | 0.00 | 0.00 | 0.00 | 76 | 1014.2 |
| 20260905203528 | 28 | 302 | 6.4 | 17.7 | 0.00 | 0.00 | 0.00 | 76 | 1014.2 |
| 20260905203055 | 29 | 321 | 4.8 | 17.7 | 0.00 | 0.00 | 0.00 | 75 | 1014.2 |
| 20260905202531 | 29 | 94 | 3.2 | 9.7 | 0.00 | 0.00 | 0.00 | 76 | 1014.2 |
| 20260905202030 | 29 | 132 | 3.2 | 11.3 | 0.00 | 0.00 | 0.00 | 76 | 1014.2 |
| 20260905201543 | 28 | 327 | 4.8 | 11.3 | 0.00 | 0.00 | 0.00 | 77 | 1014.2 |
| 20260905201029 | 28 | 269 | 6.4 | 14.5 | 0.00 | 0.00 | 0.00 | 76 | 1014.3 |
| 20260905200530 | 28 | 334 | 3.2 | 14.5 | 0.00 | 0.00 | 0.00 | 76 | 1014.3 |
| 20260905200104 | 29 | 324 | 3.2 | 8.0 | 0.00 | 0.00 | 0.00 | 76 | 1014.2 |
| 20260905195528 | 29 | 319 | 3.2 | 8.0 | 0.00 | 0.00 | 0.00 | 75 | 1014.2 |
| 20260905195030 | 30 | 338 | 3.2 | 14.5 | 0.00 | 0.00 | 0.00 | 75 | 1014.1 |
| 20260905194550 | 30 | 109 | 3.2 | 14.5 | 0.00 | 0.00 | 0.00 | 75 | 1014.0 |
| 20260905194029 | 30 | 236 | 4.8 | 14.5 | 0.00 | 0.00 | 0.00 | 74 | 1014.1 |
| 20260905193529 | 30 | 23 | 3.2 | 12.9 | 0.00 | 0.00 | 0.00 | 75 | 1014.1 |
| 20260905193110 | 30 | 169 | 4.8 | 12.9 | 0.00 | 0.00 | 0.00 | 73 | 1014.0 |
| 20260905192533 | 30 | 309 | 3.2 | 12.9 | 0.00 | 0.00 | 0.00 | 73 | 1014.2 |
| 20260905192030 | 30 | 330 | 3.2 | 12.9 | 0.00 | 0.00 | 0.00 | 75 | 1014.2 |
| 20260905191544 | 30 | 320 | 4.8 | 11.3 | 0.00 | 0.00 | 0.00 | 74 | 1014.2 |
| 20260905191031 | 30 | 302 | 4.8 | 11.3 | 0.00 | 0.00 | 0.00 | 74 | 1014.2 |
| 20260905190530 | 30 | 350 | 1.6 | 12.9 | 0.00 | 0.00 | 0.00 | 74 | 1014.2 |
| 20260905190052 | 30 | 290 | 4.8 | 12.9 | 0.00 | 0.00 | 0.00 | 73 | 1014.2 |
| 20260905185529 | 30 | 274 | 1.6 | 9.7 | 0.00 | 0.00 | 0.00 | 76 | 1014.2 |
| 20260905185027 | 30 | 290 | 4.8 | 9.7 | 0.00 | 0.00 | 0.00 | 75 | 1014.3 |
| 20260905184600 | 30 | 293 | 1.6 | 8.0 | 0.00 | 0.00 | 0.00 | 74 | 1014.4 |
| 20260905184027 | 30 | 331 | 1.6 | 9.7 | 0.00 | 0.00 | 0.00 | 75 | 1014.2 |
| 20260905183529 | 30 | 83 | 1.6 | 9.7 | 0.00 | 0.00 | 0.00 | 74 | 1014.3 |
| 20260905183100 | 30 | 146 | 3.2 | 9.7 | 0.00 | 0.00 | 0.00 | 73 | 1014.2 |
| 20260905182532 | 30 | 306 | 4.8 | 9.7 | 0.00 | 0.00 | 0.00 | 73 | 1014.3 |
| 20260905182030 | 31 | 318 | 1.6 | 9.7 | 0.00 | 0.00 | 0.00 | 74 | 1014.2 |
| 20260905181555 | 31 | 304 | 3.2 | 8.0 | 0.00 | 0.00 | 0.00 | 75 | 1014.2 |
| 20260905181030 | 30 | 273 | 3.2 | 8.0 | 0.00 | 0.00 | 0.00 | 74 | 1014.3 |
| 20260905180529 | 30 | 327 | 3.2 | 9.7 | 0.00 | 0.00 | 0.00 | 73 | 1014.4 |
| 20260905180051 | 30 | 136 | 3.2 | 9.7 | 0.00 | 0.00 | 0.00 | 75 | 1014.2 |
| 20260905175529 | 31 | 302 | 3.2 | 9.7 | 0.00 | 0.00 | 0.00 | 72 | 1014.2 |
| 20260905175028 | 31 | 256 | 3.2 | 11.3 | 0.00 | 0.00 | 0.00 | 73 | 1014.3 |
| 20260905174548 | 31 | 304 | 1.6 | 11.3 | 0.00 | 0.00 | 0.00 | 73 | 1014.3 |
| 20260905174030 | 31 | 354 | 1.6 | 8.0 | 0.00 | 0.00 | 0.00 | 73 | 1014.2 |
| 20260905173530 | 31 | 316 | 3.2 | 9.7 | 0.00 | 0.00 | 0.00 | 75 | 1014.2 |
| 20260905173044 | 31 | 143 | 1.6 | 9.7 | 0.00 | 0.00 | 0.00 | 74 | 1014.3 |
| 20260905172530 | 30 | 275 | 4.8 | 9.7 | 0.00 | 0.00 | 0.00 | 74 | 1014.3 |
| 20260905172030 | 30 | 122 | 3.2 | 9.7 | 0.00 | 0.00 | 0.00 | 75 | 1014.3 |
| 20260905171602 | 30 | 320 | 3.2 | 9.7 | 0.00 | 0.00 | 0.00 | 75 | 1014.4 |
| 20260905171029 | 30 | 325 | 1.6 | 6.4 | 0.00 | 0.00 | 0.00 | 74 | 1014.4 |
| 20260905170526 | 30 | 341 | 3.2 | 9.7 | 0.00 | 0.00 | 0.00 | 77 | 1014.5 |
| 20260905170053 | 30 | 349 | 3.2 | 9.7 | 0.00 | 0.00 | 0.00 | 77 | 1014.6 |
| 20260905165530 | 30 | 127 | 1.6 | 9.7 | 0.00 | 0.00 | 0.00 | 77 | 1014.5 |
| 20260905165029 | 30 | 17 | 3.2 | 9.7 | 0.00 | 0.00 | 0.00 | 78 | 1014.6 |
| 20260905164549 | 30 | 337 | 3.2 | 11.3 | 0.00 | 0.00 | 0.00 | 78 | 1014.7 |
| 20260905164029 | 30 | 307 | 4.8 | 11.3 | 0.00 | 0.00 | 0.00 | 77 | 1014.6 |
| 20260905163530 | 30 | 326 | 1.6 | 9.7 | 0.00 | 0.00 | 0.00 | 78 | 1014.6 |
| 20260905163047 | 30 | 309 | 3.2 | 9.7 | 0.00 | 0.00 | 0.00 | 78 | 1014.6 |
| 20260905162530 | 30 | 319 | 3.2 | 11.3 | 0.00 | 0.00 | 0.00 | 77 | 1014.6 |
| 20260905162029 | 29 | 303 | 1.6 | 11.3 | 0.00 | 0.00 | 0.00 | 79 | 1014.7 |
| 20260905161554 | 29 | 9 | 1.6 | 9.7 | 0.00 | 0.00 | 0.00 | 79 | 1014.7 |
| 20260905161027 | 29 | 326 | 4.8 | 9.7 | 0.00 | 0.00 | 0.00 | 78 | 1014.7 |
| 20260905160533 | 29 | 323 | 3.2 | 9.7 | 0.00 | 0.00 | 0.00 | 80 | 1014.7 |
| 20260905160053 | 28 | 293 | 3.2 | 9.7 | 0.00 | 0.00 | 0.00 | 80 | 1014.6 |
| 20260905155530 | 28 | 312 | 3.2 | 8.0 | 0.00 | 0.00 | 0.00 | 81 | 1014.6 |
| 20260905155030 | 28 | 306 | 1.6 | 8.0 | 0.00 | 0.00 | 0.00 | 82 | 1014.4 |
| 20260905154601 | 28 | 331 | 3.2 | 12.9 | 0.00 | 0.00 | 0.00 | 82 | 1014.6 |
| 20260905154030 | 28 | 304 | 3.2 | 12.9 | 0.00 | 0.00 | 0.00 | 82 | 1014.5 |
| 20260905153530 | 28 | 355 | 4.8 | 12.9 | 0.00 | 0.00 | 0.00 | 82 | 1014.5 |
| 20260905153057 | 28 | 17 | 3.2 | 9.7 | 0.00 | 0.00 | 0.00 | 83 | 1014.4 |
| 20260905152530 | 27 | 299 | 1.6 | 9.7 | 0.00 | 0.00 | 0.00 | 83 | 1014.4 |
| 20260905152029 | 27 | 8 | 3.2 | 9.7 | 0.00 | 0.00 | 0.00 | 85 | 1014.4 |
| 20260905151555 | 27 | 76 | 3.2 | 11.3 | 0.00 | 0.00 | 0.00 | 85 | 1014.2 |
| 20260905151029 | 27 | 323 | 3.2 | 11.3 | 0.00 | 0.00 | 0.00 | 85 | 1014.2 |
| 20260905150528 | 27 | 316 | 1.6 | 11.3 | 0.00 | 0.00 | 0.00 | 85 | 1014.2 |
| 20260905150050 | 27 | 307 | 1.6 | 11.3 | 0.00 | 0.00 | 0.00 | 85 | 1014.2 |
| 20260905145532 | 27 | 304 | 1.6 | 9.7 | 0.00 | 0.00 | 0.00 | 86 | 1014.2 |
| 20260905145030 | 27 | 328 | 1.6 | 11.3 | 0.00 | 0.00 | 0.00 | 87 | 1014.2 |
| 20260905144547 | 27 | 357 | 4.8 | 12.9 | 0.00 | 0.00 | 0.00 | 86 | 1014.1 |
| 20260905144027 | 27 | 332 | 4.8 | 12.9 | 0.00 | 0.00 | 0.00 | 86 | 1014.1 |
| 20260905143529 | 27 | 17 | 3.2 | 12.9 | 0.00 | 0.00 | 0.00 | 87 | 1014.0 |
| 20260905143056 | 27 | 335 | 6.4 | 12.9 | 0.00 | 0.00 | 0.00 | 85 | 1013.9 |
| 20260905142528 | 27 | 9 | 3.2 | 11.3 | 0.00 | 0.00 | 0.00 | 86 | 1013.9 |
| 20260905142027 | 27 | 333 | 4.8 | 11.3 | 0.00 | 0.00 | 0.00 | 85 | 1013.9 |
| 20260905141553 | 27 | 345 | 3.2 | 9.7 | 0.00 | 0.00 | 0.00 | 86 | 1013.9 |
| 20260905141030 | 27 | 351 | 3.2 | 9.7 | 0.00 | 0.00 | 0.00 | 87 | 1013.7 |
| 20260905140532 | 27 | 293 | 3.2 | 9.7 | 0.00 | 0.00 | 0.00 | 87 | 1013.6 |
| 20260905140052 | 27 | 328 | 3.2 | 9.7 | 0.00 | 0.00 | 0.00 | 87 | 1013.6 |
| 20260905135529 | 27 | 79 | 1.6 | 8.0 | 0.00 | 0.00 | 0.00 | 89 | 1013.6 |
| 20260905135028 | 27 | 325 | 1.6 | 4.8 | 0.00 | 0.00 | 0.00 | 88 | 1013.6 |
| 20260905134548 | 27 | 336 | 0.0 | 8.0 | 0.00 | 0.00 | 0.00 | 89 | 1013.6 |
| 20260905134028 | 27 | 319 | 1.6 | 8.0 | 0.00 | 0.00 | 0.00 | 89 | 1013.7 |
| 20260905133527 | 26 | 317 | 0.0 | 9.7 | 0.00 | 0.00 | 0.00 | 90 | 1013.7 |
| 20260905133054 | 26 | 276 | 1.6 | 9.7 | 0.00 | 0.00 | 0.00 | 90 | 1013.9 |
| 20260905132528 | 26 | 309 | 4.8 | 9.7 | 0.00 | 0.00 | 0.00 | 90 | 1014.0 |
| 20260905132028 | 26 | 8 | 3.2 | 8.0 | 0.00 | 0.00 | 0.00 | 91 | 1014.0 |
| 20260905131552 | 26 | 321 | 1.6 | 9.7 | 0.00 | 0.00 | 0.00 | 91 | 1013.9 |
| 20260905131030 | 26 | 319 | 0.0 | 9.7 | 0.00 | 0.00 | 0.00 | 91 | 1013.5 |
| 20260905130529 | 26 | 297 | 1.6 | 9.7 | 0.00 | 0.00 | 0.00 | 92 | 1013.5 |
| 20260905130043 | 26 | 5 | 1.6 | 6.4 | 0.00 | 0.00 | 0.00 | 93 | 1013.4 |
| 20260905125527 | 26 | 316 | 1.6 | 6.4 | 0.00 | 0.00 | 0.00 | 93 | 1013.3 |
| 20260905125028 | 26 | 330 | 1.6 | 6.4 | 0.00 | 0.00 | 0.00 | 93 | 1013.3 |
| 20260905124543 | 26 | 349 | 1.6 | 4.8 | 0.00 | 0.00 | 0.00 | 95 | 1013.2 |
| 20260905124033 | 25 | 339 | 0.0 | 3.2 | 0.00 | 0.00 | 0.00 | 95 | 1013.1 |
| 20260905123527 | 25 | 339 | 1.6 | 3.2 | 0.00 | 0.00 | 0.00 | 96 | 1013.1 |
| 20260905123049 | 25 | 6 | 0.0 | 3.2 | 0.00 | 0.00 | 0.00 | 96 | 1013.0 |
| 20260905122528 | 25 | 331 | 0.0 | 1.6 | 0.00 | 0.00 | 0.00 | 97 | 1013.0 |
| 20260905122027 | 24 | 0 | 0.0 | 1.6 | 0.00 | 0.00 | 0.00 | 98 | 1012.9 |